| time (UTC) | temp F | wind direction | speed MPH | gust MPH | rain 1hr in | rain 24hr in | rain mn in | humidity % | barometer mb |
| 20260504080958 | 52 | 211 | 2.0 | 14.0 | 0.00 | 0.00 | 0.10 | 93 | 1009.0 |
| 20260504080457 | 52 | 207 | 1.0 | 14.0 | 0.00 | 0.00 | 0.10 | 94 | 1008.7 |
| 20260504050724 | 49 | 334 | 0.0 | 14.0 | 0.00 | 0.00 | 0.10 | 96 | 1007.9 |
| 20260504050223 | 48 | 334 | 0.0 | 14.0 | 0.00 | 0.00 | 0.10 | 96 | 1007.7 |
| 20260504045723 | 48 | 334 | 0.0 | 14.0 | 0.00 | 0.00 | 0.10 | 96 | 1007.9 |
| 20260504045223 | 48 | 334 | 0.0 | 14.0 | 0.00 | 0.00 | 0.10 | 96 | 1007.9 |
| 20260504044723 | 48 | 334 | 0.0 | 14.0 | 0.00 | 0.00 | 0.10 | 96 | 1007.9 |
| 20260504044223 | 48 | 334 | 0.0 | 14.0 | 0.00 | 0.00 | 0.10 | 96 | 1007.8 |
| 20260504043721 | 48 | 334 | 0.0 | 14.0 | 0.00 | 0.00 | 0.10 | 96 | 1007.8 |
| 20260504043220 | 48 | 334 | 0.0 | 14.0 | 0.00 | 0.00 | 0.10 | 96 | 1008.3 |
| 20260504042720 | 48 | 334 | 0.0 | 14.0 | 0.00 | 0.00 | 0.10 | 96 | 1008.1 |
| 20260504042220 | 48 | 334 | 0.0 | 14.0 | 0.00 | 0.00 | 0.10 | 96 | 1008.1 |
| 20260504041720 | 48 | 334 | 0.0 | 14.0 | 0.00 | 0.00 | 0.10 | 96 | 1008.3 |
| 20260504041219 | 48 | 334 | 0.0 | 14.0 | 0.00 | 0.00 | 0.10 | 96 | 1008.1 |
| 20260504040719 | 48 | 334 | 0.0 | 14.0 | 0.00 | 0.00 | 0.10 | 96 | 1008.2 |
| 20260504040219 | 48 | 334 | 0.0 | 14.0 | 0.00 | 0.00 | 0.10 | 96 | 1008.2 |
| 20260504035203 | 48 | 334 | 0.0 | 14.0 | 0.00 | 0.00 | 0.10 | 96 | 1008.2 |
| 20260504034703 | 48 | 334 | 0.0 | 14.0 | 0.00 | 0.00 | 0.10 | 96 | 1008.4 |
| 20260504033647 | 48 | 334 | 0.0 | 14.0 | 0.02 | 0.00 | 0.10 | 96 | 1008.4 |
| 20260504033146 | 48 | 334 | 0.0 | 14.0 | 0.02 | 0.00 | 0.10 | 96 | 1008.4 |
| 20260504032645 | 48 | 334 | 0.0 | 14.0 | 0.02 | 0.00 | 0.10 | 96 | 1008.4 |
| 20260504032144 | 48 | 334 | 0.0 | 14.0 | 0.02 | 0.00 | 0.10 | 96 | 1008.3 |
| 20260504031643 | 48 | 334 | 0.0 | 14.0 | 0.02 | 0.00 | 0.10 | 95 | 1008.2 |
| 20260504031142 | 48 | 334 | 0.0 | 14.0 | 0.02 | 0.00 | 0.09 | 96 | 1008.3 |
| 20260504030641 | 48 | 334 | 0.0 | 14.0 | 0.02 | 0.00 | 0.09 | 96 | 1008.4 |
| 20260504030141 | 48 | 334 | 0.0 | 14.0 | 0.02 | 0.00 | 0.09 | 96 | 1008.5 |
| 20260504025126 | 49 | 334 | 0.0 | 14.0 | 0.03 | 0.00 | 0.09 | 96 | 1008.5 |
| 20260504024626 | 49 | 334 | 0.0 | 14.0 | 0.03 | 0.00 | 0.09 | 96 | 1008.3 |
| 20260504024126 | 49 | 334 | 0.0 | 14.0 | 0.01 | 0.00 | 0.07 | 96 | 1008.4 |
| 20260504023626 | 49 | 334 | 0.0 | 14.0 | 0.01 | 0.00 | 0.07 | 96 | 1008.5 |
| 20260504023126 | 49 | 334 | 0.0 | 14.0 | 0.02 | 0.00 | 0.07 | 96 | 1008.2 |
| 20260504022625 | 49 | 334 | 0.0 | 14.0 | 0.02 | 0.00 | 0.07 | 96 | 1008.7 |
| 20260504022125 | 49 | 334 | 0.0 | 14.0 | 0.03 | 0.00 | 0.07 | 96 | 1008.4 |
| 20260504021625 | 49 | 334 | 0.0 | 14.0 | 0.03 | 0.00 | 0.07 | 96 | 1008.5 |
| 20260504021124 | 49 | 334 | 0.0 | 14.0 | 0.02 | 0.00 | 0.06 | 96 | 1008.7 |
| 20260504020624 | 49 | 334 | 0.0 | 14.0 | 0.02 | 0.00 | 0.06 | 96 | 1008.6 |
| 20260504020123 | 49 | 334 | 0.0 | 14.0 | 0.03 | 0.00 | 0.06 | 96 | 1008.5 |
| 20260504015622 | 49 | 334 | 0.0 | 14.0 | 0.03 | 0.00 | 0.06 | 96 | 1008.5 |
| 20260504015121 | 49 | 334 | 0.0 | 14.0 | 0.03 | 0.00 | 0.06 | 95 | 1008.5 |
| 20260504014621 | 49 | 334 | 0.0 | 14.0 | 0.02 | 0.00 | 0.06 | 95 | 1008.5 |
| 20260504014121 | 49 | 334 | 0.0 | 14.0 | 0.02 | 0.00 | 0.06 | 95 | 1008.6 |
| 20260504013621 | 49 | 334 | 0.0 | 14.0 | 0.02 | 0.00 | 0.06 | 95 | 1008.8 |
| 20260504012605 | 49 | 334 | 0.0 | 14.0 | 0.03 | 0.00 | 0.05 | 95 | 1008.7 |
| 20260504012104 | 49 | 334 | 0.0 | 14.0 | 0.02 | 0.00 | 0.04 | 95 | 1008.9 |
| 20260504011604 | 49 | 334 | 0.0 | 14.0 | 0.02 | 0.00 | 0.04 | 95 | 1009.3 |
| 20260504011104 | 49 | 334 | 0.0 | 14.0 | 0.02 | 0.00 | 0.04 | 95 | 1009.0 |
| 20260504010049 | 49 | 334 | 0.0 | 14.0 | 0.02 | 0.00 | 0.03 | 95 | 1009.1 |
| 20260504005549 | 49 | 334 | 0.0 | 14.0 | 0.02 | 0.00 | 0.03 | 95 | 1009.3 |
| 20260504005049 | 49 | 334 | 0.0 | 14.0 | 0.03 | 0.00 | 0.03 | 95 | 1009.4 |
| 20260504003518 | 49 | 334 | 0.0 | 14.0 | 0.03 | 0.00 | 0.03 | 95 | 1009.2 |
| 20260504003018 | 49 | 334 | 0.0 | 14.0 | 0.03 | 0.00 | 0.03 | 95 | 1009.5 |
| 20260504002517 | 49 | 334 | 0.0 | 14.0 | 0.03 | 0.00 | 0.03 | 95 | 1009.4 |
| 20260504002017 | 49 | 334 | 0.0 | 14.0 | 0.01 | 0.00 | 0.01 | 94 | 1009.6 |
| 20260504001517 | 49 | 334 | 0.0 | 14.0 | 0.01 | 0.00 | 0.01 | 94 | 1009.7 |
| 20260504001016 | 49 | 334 | 0.0 | 14.0 | 0.01 | 0.00 | 0.01 | 94 | 1009.2 |
| 20260504000515 | 49 | 334 | 0.0 | 14.0 | 0.00 | 0.00 | 0.00 | 94 | 1009.7 |
| 20260504000014 | 49 | 334 | 0.0 | 14.0 | 0.00 | 0.00 | 0.00 | 94 | 1009.6 |
| 20260503235513 | 49 | 334 | 0.0 | 14.0 | 0.00 | 0.00 | 0.00 | 94 | 1009.8 |
| 20260503235012 | 49 | 334 | 0.0 | 14.0 | 0.00 | 0.00 | 0.00 | 94 | 1010.3 |
| 20260503234512 | 49 | 334 | 0.0 | 14.0 | 0.00 | 0.00 | 0.00 | 94 | 1010.4 |
| 20260503234012 | 49 | 334 | 0.0 | 14.0 | 0.00 | 0.00 | 0.00 | 94 | 1010.0 |
| 20260503233512 | 49 | 334 | 0.0 | 14.0 | 0.00 | 0.00 | 0.00 | 94 | 1009.9 |
| 20260503233011 | 49 | 334 | 0.0 | 14.0 | 0.00 | 0.00 | 0.00 | 93 | 1010.1 |
| 20260503232511 | 49 | 334 | 0.0 | 14.0 | 0.00 | 0.00 | 0.00 | 93 | 1009.8 |
| 20260503232010 | 49 | 334 | 0.0 | 14.0 | 0.00 | 0.00 | 0.00 | 93 | 1009.6 |
| 20260503231509 | 49 | 334 | 0.0 | 14.0 | 0.00 | 0.00 | 0.00 | 92 | 1009.7 |
| 20260503231009 | 49 | 334 | 0.0 | 14.0 | 0.00 | 0.00 | 0.00 | 93 | 1009.7 |
| 20260503230509 | 49 | 334 | 0.0 | 14.0 | 0.00 | 0.00 | 0.00 | 93 | 1009.7 |
| 20260503225452 | 49 | 334 | 0.0 | 14.0 | 0.00 | 0.00 | 0.00 | 92 | 1010.0 |
| 20260503224951 | 49 | 334 | 0.0 | 14.0 | 0.00 | 0.00 | 0.00 | 92 | 1009.6 |
| 20260503224450 | 49 | 334 | 0.0 | 14.0 | 0.00 | 0.00 | 0.00 | 93 | 1009.9 |
| 20260503223950 | 49 | 334 | 0.0 | 14.0 | 0.00 | 0.00 | 0.00 | 93 | 1010.5 |
| 20260503223450 | 49 | 334 | 0.0 | 14.0 | 0.00 | 0.00 | 0.00 | 92 | 1010.3 |
| 20260503222950 | 49 | 334 | 0.0 | 14.0 | 0.00 | 0.00 | 0.00 | 92 | 1009.9 |
| 20260503222450 | 49 | 334 | 0.0 | 14.0 | 0.00 | 0.00 | 0.00 | 91 | 1009.8 |
| 20260503221950 | 49 | 334 | 0.0 | 14.0 | 0.00 | 0.00 | 0.00 | 91 | 1009.8 |
| 20260503221450 | 49 | 334 | 0.0 | 14.0 | 0.00 | 0.00 | 0.00 | 91 | 1009.9 |
| 20260503220949 | 49 | 334 | 0.0 | 14.0 | 0.00 | 0.00 | 0.00 | 91 | 1010.0 |
| 20260503220449 | 49 | 334 | 0.0 | 14.0 | 0.00 | 0.00 | 0.00 | 91 | 1010.0 |
| 20260503215949 | 49 | 334 | 0.0 | 14.0 | 0.00 | 0.00 | 0.00 | 90 | 1010.1 |
| 20260503215448 | 49 | 334 | 0.0 | 14.0 | 0.00 | 0.00 | 0.00 | 90 | 1010.0 |
| 20260503214947 | 49 | 334 | 0.0 | 14.0 | 0.00 | 0.00 | 0.00 | 90 | 1009.8 |
| 20260503214447 | 49 | 334 | 1.0 | 14.0 | 0.00 | 0.00 | 0.00 | 90 | 1009.7 |
| 20260503213946 | 49 | 205 | 0.0 | 14.0 | 0.00 | 0.00 | 0.00 | 90 | 1010.5 |
| 20260503213446 | 49 | 205 | 0.0 | 14.0 | 0.00 | 0.00 | 0.00 | 90 | 1010.5 |
| 20260503212945 | 49 | 205 | 0.0 | 14.0 | 0.00 | 0.00 | 0.00 | 90 | 1011.0 |
| 20260503212444 | 49 | 205 | 0.0 | 14.0 | 0.00 | 0.00 | 0.00 | 89 | 1010.7 |
| 20260503211429 | 49 | 205 | 0.0 | 14.0 | 0.00 | 0.00 | 0.00 | 88 | 1010.7 |
| 20260503210929 | 49 | 205 | 0.0 | 14.0 | 0.00 | 0.00 | 0.00 | 88 | 1010.6 |
| 20260503210429 | 49 | 205 | 0.0 | 14.0 | 0.00 | 0.00 | 0.00 | 88 | 1010.7 |
| 20260503205928 | 49 | 205 | 0.0 | 14.0 | 0.00 | 0.00 | 0.00 | 88 | 1010.6 |
| 20260503205427 | 49 | 205 | 0.0 | 14.0 | 0.00 | 0.00 | 0.00 | 88 | 1010.7 |
| 20260503204926 | 49 | 205 | 0.0 | 14.0 | 0.00 | 0.00 | 0.00 | 88 | 1010.7 |
| 20260503203355 | 49 | 205 | 0.0 | 14.0 | 0.00 | 0.00 | 0.00 | 87 | 1011.0 |
| 20260503202855 | 49 | 205 | 0.0 | 14.0 | 0.00 | 0.00 | 0.00 | 87 | 1011.1 |
| 20260503201839 | 50 | 205 | 0.0 | 14.0 | 0.00 | 0.00 | 0.00 | 87 | 1010.9 |
| 20260503201339 | 50 | 205 | 0.0 | 14.0 | 0.00 | 0.00 | 0.00 | 86 | 1011.0 |
| 20260503200838 | 50 | 205 | 0.0 | 14.0 | 0.00 | 0.00 | 0.00 | 86 | 1011.1 |
| 20260503200338 | 50 | 205 | 0.0 | 14.0 | 0.00 | 0.00 | 0.00 | 86 | 1011.1 |
| 20260503195838 | 50 | 205 | 0.0 | 14.0 | 0.00 | 0.00 | 0.00 | 86 | 1011.4 |
| 20260503195337 | 50 | 205 | 0.0 | 14.0 | 0.00 | 0.00 | 0.00 | 85 | 1011.2 |
| 20260503194838 | 51 | 205 | 0.0 | 14.0 | 0.00 | 0.00 | 0.00 | 85 | 1010.9 |
| 20260503194337 | 51 | 205 | 0.0 | 14.0 | 0.00 | 0.00 | 0.00 | 85 | 1011.2 |
| 20260503193836 | 51 | 205 | 0.0 | 14.0 | 0.00 | 0.00 | 0.00 | 85 | 1011.2 |
| 20260503193336 | 51 | 205 | 0.0 | 14.0 | 0.00 | 0.00 | 0.00 | 84 | 1011.0 |
| 20260503192836 | 51 | 205 | 0.0 | 14.0 | 0.00 | 0.00 | 0.00 | 84 | 1011.2 |
| 20260503192335 | 51 | 205 | 0.0 | 14.0 | 0.00 | 0.00 | 0.00 | 84 | 1011.3 |
| 20260503191835 | 51 | 205 | 0.0 | 14.0 | 0.00 | 0.00 | 0.00 | 84 | 1011.4 |
| 20260503191334 | 52 | 205 | 0.0 | 14.0 | 0.00 | 0.00 | 0.00 | 84 | 1011.3 |
| 20260503190317 | 52 | 205 | 0.0 | 14.0 | 0.00 | 0.00 | 0.00 | 84 | 1011.2 |
| 20260503185816 | 52 | 205 | 0.0 | 14.0 | 0.00 | 0.00 | 0.00 | 83 | 1011.4 |
| 20260503185315 | 52 | 205 | 0.0 | 14.0 | 0.00 | 0.00 | 0.00 | 83 | 1011.4 |
| 20260503184815 | 52 | 205 | 0.0 | 14.0 | 0.00 | 0.00 | 0.00 | 83 | 1011.6 |
| 20260503184315 | 52 | 205 | 0.0 | 14.0 | 0.00 | 0.00 | 0.00 | 83 | 1011.4 |
| 20260503183815 | 53 | 205 | 0.0 | 14.0 | 0.00 | 0.00 | 0.00 | 82 | 1011.3 |
| 20260503183314 | 53 | 205 | 0.0 | 14.0 | 0.00 | 0.00 | 0.00 | 82 | 1011.6 |
| 20260503182300 | 53 | 205 | 0.0 | 14.0 | 0.00 | 0.00 | 0.00 | 81 | 1011.0 |
| 20260503181759 | 54 | 205 | 0.0 | 14.0 | 0.00 | 0.00 | 0.00 | 81 | 1011.3 |
| 20260503181258 | 54 | 205 | 0.0 | 14.0 | 0.00 | 0.00 | 0.00 | 80 | 1011.3 |
| 20260503180758 | 54 | 205 | 0.0 | 14.0 | 0.00 | 0.00 | 0.00 | 80 | 1011.3 |
| 20260503180257 | 54 | 205 | 0.0 | 14.0 | 0.00 | 0.00 | 0.00 | 79 | 1011.3 |
| 20260503175756 | 54 | 205 | 0.0 | 14.0 | 0.00 | 0.00 | 0.00 | 79 | 1011.2 |
| 20260503175255 | 55 | 205 | 0.0 | 14.0 | 0.00 | 0.00 | 0.00 | 79 | 1011.3 |
| 20260503174756 | 55 | 205 | 0.0 | 14.0 | 0.00 | 0.00 | 0.00 | 78 | 1011.4 |
| 20260503174256 | 55 | 205 | 0.0 | 14.0 | 0.00 | 0.00 | 0.00 | 78 | 1011.3 |
| 20260503173755 | 55 | 203 | 0.0 | 14.0 | 0.00 | 0.00 | 0.00 | 78 | 1011.7 |
| 20260503173255 | 55 | 203 | 0.0 | 14.0 | 0.00 | 0.00 | 0.00 | 78 | 1011.5 |
| 20260503172754 | 55 | 204 | 1.0 | 14.0 | 0.00 | 0.00 | 0.00 | 78 | 1011.9 |
| 20260503172253 | 55 | 179 | 0.0 | 14.0 | 0.00 | 0.00 | 0.00 | 77 | 1011.7 |
| 20260503171754 | 55 | 205 | 0.0 | 14.0 | 0.00 | 0.00 | 0.00 | 78 | 1011.6 |
| 20260503171252 | 55 | 185 | 0.0 | 14.0 | 0.00 | 0.00 | 0.00 | 78 | 1011.8 |
| 20260503170752 | 55 | 169 | 1.0 | 14.0 | 0.00 | 0.00 | 0.00 | 78 | 1011.9 |
| 20260503170251 | 55 | 172 | 1.0 | 14.0 | 0.00 | 0.00 | 0.00 | 78 | 1011.5 |
| 20260503150658 | 55 | 202 | 1.0 | 14.0 | 0.00 | 0.00 | 0.00 | 80 | 1011.9 |
| 20260503150157 | 55 | 219 | 2.0 | 14.0 | 0.00 | 0.00 | 0.00 | 80 | 1012.2 |
| 20260503140125 | 55 | 199 | 1.0 | 14.0 | 0.00 | 0.00 | 0.00 | 81 | 1013.0 |
| 20260503131050 | 55 | 227 | 2.0 | 14.0 | 0.00 | 0.00 | 0.00 | 79 | 1012.5 |
| 20260503130550 | 55 | 157 | 0.0 | 14.0 | 0.00 | 0.00 | 0.00 | 80 | 1013.1 |
| 20260503110440 | 56 | 179 | 2.0 | 14.0 | 0.00 | 0.00 | 0.00 | 79 | 1012.9 |